Date,TemperatureHighF,TemperatureAvgF,TemperatureLowF,DewpointHighF,DewpointAvgF,DewpointLowF,HumidityHigh,HumidityAvg,HumidityLow,PressureMaxIn,PressureMinIn,WindSpeedMaxMPH,WindSpeedAvgMPH,GustSpeedMaxMPH,PrecipitationSumIn
2013-9-3,87.2,78.2,70.8,56.5,53.5,47.5,59,44,26,29.78,29.65,6,0,10,0.00
2013-9-4,90.3,73.1,62.5,56.2,40.5,-99.9,73,39,20,29.83,29.66,7,-62,10,0.00
2013-9-5,91.7,74.2,63.9,48.8,31.8,-99.9,54,28,8,29.73,29.60,25,-58,33,0.00
2013-9-8,89.9,81.4,69.2,39.0,25.2,15.9,31,13,8,29.78,29.63,0,0,0,0.00
2013-9-9,86.1,71.4,60.9,40.2,27.0,-99.9,34,21,11,29.78,29.63,0,-32,1,0.00
2013-9-10,86.2,70.7,59.3,38.5,25.7,-99.9,36,21,11,29.77,29.66,2,-43,3,0.00
2013-9-11,89.2,73.1,62.6,39.0,26.6,-99.9,34,20,12,29.79,29.68,2,-44,4,0.00
2013-9-12,84.6,70.5,65.5,56.3,43.3,-99.9,59,41,26,29.77,29.67,4,-31,17,0.00
2013-9-13,86.1,66.7,59.8,53.8,37.5,-99.9,69,43,26,29.78,29.61,8,-81,10,0.00
2013-9-14,86.8,70.5,59.2,50.5,36.4,-99.9,63,35,21,29.69,29.55,7,-62,10,0.00
2013-9-15,92.2,72.7,60.1,47.9,29.9,-99.9,52,26,10,29.63,29.50,4,-62,11,0.00
2013-9-16,89.4,71.9,55.9,37.7,27.5,-99.9,46,22,12,29.69,29.51,3,-47,4,0.00
2013-9-17,82.0,66.8,56.6,38.9,24.0,-99.9,48,24,7,29.75,29.44,22,-47,33,0.00
2013-9-18,70.1,55.6,45.6,37.4,25.7,-99.9,66,37,20,29.93,29.74,5,-46,6,0.00
2013-9-19,77.8,58.4,43.7,28.6,17.1,-99.9,53,25,12,29.98,29.76,3,-62,4,0.00
2013-9-20,86.3,65.6,52.1,29.5,17.9,-99.9,37,19,8,29.77,29.50,0,-47,1,0.00
2013-9-21,72.4,57.1,49.7,40.9,25.4,-99.9,65,35,19,29.67,29.46,7,-51,26,0.00
2013-9-22,69.6,53.0,46.6,37.2,22.5,-99.9,64,39,19,29.89,29.67,5,-82,12,0.00
2013-9-23,74.8,58.4,46.4,41.2,28.4,-99.9,73,39,20,29.97,29.80,5,-50,6,0.00
2013-9-24,78.4,63.1,54.7,34.6,19.2,-99.9,37,22,10,29.82,29.56,1,-47,6,0.00
2013-9-25,58.7,47.5,41.1,37.1,21.6,-99.9,74,44,25,29.78,29.58,6,-62,17,0.00
2013-9-26,53.9,40.5,37.5,34.5,13.3,-99.9,74,47,32,30.04,29.78,9,-128,13,0.00
2013-9-27,60.6,44.5,35.2,31.9,14.2,-99.9,74,40,24,30.17,30.04,3,-100,5,0.00
2013-9-28,70.0,35.9,39.3,29.1,0.4,-99.9,56,37,21,30.10,29.89,5,-197,6,0.00
2013-9-29,73.7,69.7,64.1,28.9,27.5,25.4,26,21,19,29.84,29.76,0,0,0,0.00
2013-9-30,74.3,61.8,54.4,38.9,24.0,-99.9,52,28,17,29.83,29.74,0,-64,13,0.00